COSMOS 1275 DEB

Satellite information

Favourite Embed

Satellite Type and Status

DEBRISIN ORBIT

Key statistics

Satellite COSMOS 1275 DEB at a glance.

Uptime

16044

Days in orbit

Revolutions

≈ 14.2

Per day

Orbit

LEO

Low Earth Orbit

Inclination

82.9

Latest

Satellite identification and parameters

Extended collection of information and parameters for COSMOS 1275 DEB.

Object identification

Identified? True

Debris? True

Object name: COSMOS 1275 DEB

International designator: 1981-053GD

Object number (NORAD): 13483

Object ID (CCSDS): 13483

Country: COMMONWEALTH OF INDEPENDENT STATES (CIS)

Current information (Y/N): Y

RCS size: SMALL

Orbital parameters

Period: 101.366 minutes

Inclination: 82.9233 deg

SMA: 7201.486 km

Apoapsis: 828.706 km

Periapsis: 817.995 km

RAAN: 51.3614 deg

Eccentricy: 0.0007437

Argument of periapsis: 231.8613 deg

Mean anomaly: 191.669 deg

Mean motion: 14.20592837 rev/day

Mean motion (dot): 0.00002676 rev/day2

B* drag term: 0.0012367 1/REarth

Two-line elements (TLE)

Creation date: May 8, 2025, 3:01 a.m.

Reference frame: TEME

Reference center: EARTH

Epoch: May 7, 2025, 7:30 p.m. UTC

TLE line 0: 0 COSMOS 1275 DEB

TLE line 1: 1 13483U 81053GD 25127.81298819 .00002676 00000-0 12367-2 0 9991

TLE line 2: 2 13483 82.9233 51.3614 0007437 231.8613 191.6690 14.20592837189813

Live tracking on map

Real-time ground track for satellite COSMOS 1275 DEB.

In-orbit conjunctions

A list of the most updated potential collisions computed for object COSMOS 1275 DEB.

Target Orbit TCA Probability of collision Miss distance Type
SL-16 DEB LEO 2025-02-09 01:56:34 0.0001730076 217.0 (m) DEBRIS
NOAA 16 DEB SSO 2024-11-11 05:35:11 0.0001964444 314.0 (m) DEBRIS
SL-3 R/B LEO 2024-11-09 15:01:38 0.0007002727 687.0 (m) ROCKET BODY

Associated space launch

Navigation satellite providing location information for the Tsiklon-B navigation system

COSMOS 1275 DEB was lifted into orbit during the mission ‘Kosmos-3M | Parus 27’, on board a Kosmos-3M space rocket.

The launch took place on June 4, 1981, 3:41 p.m. from 132/2.

For more information about the launch, click the button.

Launch to space Kosmos-3M | Parus 27
Kosmos-3M | Parus 27

Agency: N/A

Status: Launch Successful

Launch date: June 4, 1981, 3:41 p.m. UTC

Rocket: Kosmos-3M

Launch pad: 132/2

Location: Plesetsk Cosmodrome, Russian Federation

...

Latest news about this satellite

There are no fresh news available about this satellite. Check back as we update our databases every day.


Newsletter sign-up

Weekly statistics, charts and insights to help you stay on top of the space industry.